CW1756 Weather Reports


time (UTC)temp
F
wind
direction
speed
knots
gust
knots
rain 1hr
in
rain 24hr
in
rain mn
in
humidity
%
barometer
mb
20260510040745 59 232 3.5 5.2 0.00 0.00 0.00 69 1011.8
20260510030737 57 222 2.6 4.3 0.00 0.00 0.00 72 1011.7
20260510020730 57 219 0.0 0.0 0.00 0.00 0.00 71 1011.5
20260510010730 60 217 0.0 0.0 0.00 0.00 0.00 64 1010.5
20260510000734 64 360 6.1 8.7 0.00 0.00 0.00 56 1009.7
20260509230727 69 360 7.0 11.3 0.00 0.00 0.00 48 1009.4
20260509220754 68 360 5.2 10.4 0.00 0.00 0.00 50 1009.7
20260509210736 67 360 0.9 4.3 0.00 0.00 0.00 56 1009.5
20260509200749 67 360 1.7 4.3 0.00 0.00 0.00 55 1009.3
20260509190727 69 360 1.7 4.3 0.00 0.00 0.00 49 1009.4
20260509180738 64 360 0.9 3.5 0.00 0.00 0.00 55 1010.1
20260509170729 63 360 1.7 3.5 0.00 0.00 0.00 57 1010.7
20260509160723 61 63 3.5 5.2 0.00 0.00 0.00 59 1011.2
20260509150720 60 49 3.5 8.7 0.00 0.00 0.00 63 1011.3
20260509140741 58 15 0.9 4.3 0.00 0.00 0.00 70 1011.6
20260509130735 55 348 1.7 4.3 0.00 0.00 0.00 78 1011.4
20260509120735 52 282 0.0 0.9 0.00 0.00 0.00 77 1011.6
20260509110757 51 282 0.0 1.7 0.00 0.00 0.00 81 1011.4
20260509100746 51 282 0.0 0.0 0.00 0.00 0.00 77 1011.2
20260509090730 51 282 0.0 0.0 0.00 0.00 0.00 78 1011.1
20260509080724 52 282 0.0 0.0 0.00 0.00 0.00 74 1011.4
20260509070730 52 282 0.0 1.7 0.00 0.00 0.00 76 1011.6
20260509060720 52 282 0.0 0.0 0.00 0.00 0.00 73 1011.7
20260509050728 55 360 0.0 0.0 0.00 0.00 0.00 67 1012.2